AFL1315 ULLI-USSS

Flight info

Callsign AFL1315
Flight time N/A
Altitude 39000
Route KERIS1A/28R KERIS L255 DOKOD M61 SUMOM P983 GANPO T762 BIKMA BIKMA6S
Aircraft A20N/M-SDE2E3FGHIRWXY/LB1

Departure

Time 2026-05-04 19:19
Airport Pulkovo Airport (ULLI)

Arrival

Time N/A
Airport Koltsovo Airport (USSS)
Time Latitude Longitude Altitude Speed Heading
2026-05-04 18:49 59.79711 30.26640 86 ft 0 kts 94°
2026-05-04 19:05 59.79711 30.26615 87 ft 2 kts 94°
2026-05-04 19:05 59.79713 30.26582 87 ft 2 kts 94°
2026-05-04 19:06 59.79714 30.26549 89 ft 2 kts 95°
2026-05-04 19:06 59.79715 30.26516 89 ft 2 kts 89°
2026-05-04 19:06 59.79712 30.26484 89 ft 2 kts 62°
2026-05-04 19:06 59.79703 30.26463 88 ft 1 kts 27°
2026-05-04 19:07 59.79700 30.26461 88 ft 0 kts 23°
2026-05-04 19:08 59.79701 30.26461 85 ft 0 kts 22°
2026-05-04 19:09 59.79721 30.26474 88 ft 5 kts 18°
2026-05-04 19:09 59.79784 30.26512 85 ft 13 kts 17°
2026-05-04 19:09 59.79876 30.26566 83 ft 14 kts 16°
2026-05-04 19:09 59.79971 30.26621 83 ft 12 kts 16°
2026-05-04 19:10 59.80055 30.26670 81 ft 12 kts 16°
2026-05-04 19:10 59.80139 30.26720 81 ft 13 kts 17°
2026-05-04 19:10 59.80228 30.26772 81 ft 14 kts 16°
2026-05-04 19:10 59.80320 30.26826 73 ft 14 kts 16°
2026-05-04 19:11 59.80390 30.26888 76 ft 7 kts 64°
2026-05-04 19:11 59.80377 30.27008 70 ft 13 kts 107°
2026-05-04 19:11 59.80351 30.27180 78 ft 13 kts 106°
2026-05-04 19:11 59.80323 30.27367 75 ft 14 kts 106°
2026-05-04 19:12 59.80295 30.27556 76 ft 14 kts 107°
2026-05-04 19:12 59.80233 30.27965 76 ft 15 kts 107°
2026-05-04 19:12 59.80204 30.28168 75 ft 15 kts 105°
2026-05-04 19:13 59.80174 30.28368 78 ft 15 kts 107°
2026-05-04 19:13 59.80144 30.28561 70 ft 15 kts 107°
2026-05-04 19:13 59.80116 30.28748 75 ft 14 kts 106°
2026-05-04 19:13 59.80090 30.28929 75 ft 13 kts 106°
2026-05-04 19:14 59.80064 30.29104 78 ft 13 kts 106°
2026-05-04 19:14 59.80039 30.29280 72 ft 13 kts 106°
2026-05-04 19:14 59.80013 30.29453 71 ft 13 kts 107°
2026-05-04 19:14 59.79987 30.29619 73 ft 13 kts 107°
2026-05-04 19:15 59.79963 30.29783 75 ft 12 kts 107°
2026-05-04 19:15 59.79941 30.29943 69 ft 12 kts 100°
2026-05-04 19:15 59.79969 30.30083 67 ft 11 kts 48°
2026-05-04 19:15 59.79995 30.30141 73 ft 0 kts 47°
2026-05-04 19:16 59.79999 30.30149 74 ft 4 kts 47°
2026-05-04 19:16 59.80029 30.30214 70 ft 8 kts 47°
2026-05-04 19:17 59.80074 30.30284 72 ft 9 kts 30°
2026-05-04 19:17 59.80120 30.30273 77 ft 5 kts 292°
2026-05-04 19:17 59.80127 30.30238 71 ft 0 kts 287°
2026-05-04 19:17 59.80127 30.30235 75 ft 0 kts 287°
2026-05-04 19:18 59.80183 30.29869 72 ft 62 kts 287°
2026-05-04 19:18 59.80368 30.28623 79 ft 126 kts 286°
2026-05-04 19:18 59.80663 30.26646 272 ft 158 kts 286°
2026-05-04 19:19 59.80973 30.24580 1153 ft 150 kts 285°
2026-05-04 19:19 59.81254 30.22687 2274 ft 138 kts 284°
2026-05-04 19:19 59.81534 30.20785 2910 ft 158 kts 284°
2026-05-04 19:19 59.81869 30.18479 3210 ft 190 kts 284°
2026-05-04 19:20 59.82260 30.15808 3816 ft 208 kts 283°
2026-05-04 19:20 59.82670 30.13049 4816 ft 208 kts 282°
2026-05-04 19:20 59.83080 30.10280 5762 ft 210 kts 282°
2026-05-04 19:20 59.83496 30.07451 6609 ft 214 kts 282°
2026-05-04 19:21 59.83924 30.04618 7440 ft 218 kts 284°
2026-05-04 19:21 59.84651 30.01907 8307 ft 229 kts 303°
2026-05-04 19:21 59.85950 29.99923 9166 ft 248 kts 329°
2026-05-04 19:21 59.87726 29.99409 9940 ft 273 kts 359°
2026-05-04 19:22 59.89622 30.00241 10697 ft 284 kts
2026-05-04 19:22 59.91485 30.01800 11440 ft 299 kts 28°
2026-05-04 19:22 59.92945 30.04858 12173 ft 313 kts 62°
2026-05-04 19:22 59.93492 30.09030 12936 ft 313 kts 95°
2026-05-04 19:23 59.93112 30.13236 13706 ft 308 kts 112°
2026-05-04 19:23 59.92452 30.17307 14437 ft 309 kts 118°
2026-05-04 19:23 59.91605 30.21272 15021 ft 317 kts 122°
2026-05-04 19:23 59.90641 30.25370 15306 ft 337 kts 122°
2026-05-04 19:24 59.89633 30.29674 15655 ft 355 kts 121°
2026-05-04 19:24 59.88846 30.34454 16244 ft 373 kts 105°
2026-05-04 19:24 59.88534 30.39711 16596 ft 393 kts 98°
2026-05-04 19:24 59.88369 30.45287 16881 ft 411 kts 97°
2026-05-04 19:25 59.88223 30.51068 17351 ft 422 kts 97°
2026-05-04 19:25 59.88067 30.56964 17999 ft 427 kts 97°
2026-05-04 19:25 59.87903 30.62840 18594 ft 431 kts 97°
2026-05-04 19:25 59.87726 30.68824 19207 ft 434 kts 97°
2026-05-04 19:26 59.87542 30.74857 19822 ft 437 kts 98°
2026-05-04 19:26 59.87351 30.80934 20444 ft 440 kts 98°
2026-05-04 19:26 59.87155 30.87034 21042 ft 443 kts 98°
2026-05-04 19:26 59.86954 30.93189 21654 ft 447 kts 98°
2026-05-04 19:27 59.86749 30.99376 22245 ft 449 kts 98°
2026-05-04 19:27 59.86541 31.05533 22807 ft 453 kts 99°
2026-05-04 19:27 59.86326 31.11831 23329 ft 456 kts 99°
2026-05-04 19:27 59.86107 31.18152 23774 ft 459 kts 99°
2026-05-04 19:28 59.85884 31.24496 24208 ft 462 kts 99°
2026-05-04 19:28 59.85656 31.30902 24640 ft 464 kts 99°
2026-05-04 19:28 59.85426 31.37258 25063 ft 467 kts 99°
2026-05-04 19:28 59.85189 31.43743 25482 ft 470 kts 99°
2026-05-04 19:29 59.84948 31.50248 25893 ft 472 kts 99°
2026-05-04 19:29 59.84701 31.56802 26292 ft 475 kts 99°
2026-05-04 19:29 59.84450 31.63386 26677 ft 477 kts 99°
2026-05-04 19:29 59.84198 31.69909 27047 ft 480 kts 99°
2026-05-04 19:30 59.83939 31.76547 27411 ft 483 kts 99°
2026-05-04 19:30 59.83674 31.83220 27768 ft 486 kts 99°
2026-05-04 19:30 59.83405 31.89919 28111 ft 488 kts 99°
2026-05-04 19:30 59.83130 31.96693 28450 ft 491 kts 99°
2026-05-04 19:31 59.82849 32.03513 28783 ft 494 kts 99°
2026-05-04 19:31 59.82565 32.10333 29104 ft 496 kts 99°
2026-05-04 19:31 59.82275 32.17191 29490 ft 498 kts 99°
2026-05-04 19:31 59.81987 32.23956 29891 ft 497 kts 100°
2026-05-04 19:32 59.81692 32.30799 30229 ft 497 kts 100°
2026-05-04 19:32 59.81451 32.37683 30551 ft 499 kts 97°
2026-05-04 19:32 59.81312 32.44625 30905 ft 500 kts 96°
2026-05-04 19:32 59.81226 32.51535 31250 ft 500 kts 96°
2026-05-04 19:33 59.81157 32.58376 31576 ft 501 kts 96°
2026-05-04 19:33 59.81083 32.65309 31892 ft 501 kts 96°
2026-05-04 19:33 59.80999 32.72223 32212 ft 501 kts 96°
2026-05-04 19:33 59.80901 32.79149 32529 ft 501 kts 96°
2026-05-04 19:34 59.80793 32.86081 32836 ft 501 kts 96°
2026-05-04 19:34 59.80677 32.93001 33147 ft 501 kts 96°
2026-05-04 19:34 59.80556 32.99920 33444 ft 501 kts 96°
2026-05-04 19:34 59.80431 33.06772 33715 ft 501 kts 96°
2026-05-04 19:35 59.80300 33.13698 33983 ft 500 kts 96°
2026-05-04 19:35 59.80168 33.20590 34268 ft 499 kts 96°
2026-05-04 19:35 59.80032 33.27479 34544 ft 498 kts 96°
2026-05-04 19:35 59.79893 33.34351 34803 ft 497 kts 96°
2026-05-04 19:36 59.79750 33.41228 35049 ft 497 kts 96°
2026-05-04 19:36 59.79604 33.48088 35297 ft 496 kts 96°
2026-05-04 19:36 59.79455 33.54935 35536 ft 496 kts 96°
2026-05-04 19:36 59.79304 33.61689 35769 ft 495 kts 96°
2026-05-04 19:37 59.79149 33.68514 36008 ft 495 kts 95°
2026-05-04 19:37 59.78989 33.75349 36241 ft 494 kts 95°
2026-05-04 19:37 59.78827 33.82175 36472 ft 494 kts 95°
2026-05-04 19:37 59.78660 33.88991 36700 ft 493 kts 95°
2026-05-04 19:38 59.78491 33.95788 36921 ft 492 kts 95°
2026-05-04 19:38 59.78318 34.02581 37142 ft 492 kts 95°
2026-05-04 19:38 59.78145 34.09271 37355 ft 491 kts 95°
2026-05-04 19:38 59.77966 34.16045 37562 ft 490 kts 95°
2026-05-04 19:39 59.77784 34.22805 37781 ft 490 kts 95°
2026-05-04 19:39 59.77598 34.29573 37966 ft 489 kts 95°
2026-05-04 19:39 59.77412 34.36220 38161 ft 489 kts 95°
2026-05-04 19:39 59.77219 34.42968 38339 ft 488 kts 95°
2026-05-04 19:40 59.77024 34.49695 38483 ft 487 kts 95°
2026-05-04 19:40 59.76825 34.56427 38608 ft 487 kts 95°
2026-05-04 19:40 59.76622 34.63153 38654 ft 489 kts 95°
2026-05-04 19:41 59.76210 34.76536 38662 ft 487 kts 95°
2026-05-04 19:41 59.75784 34.89916 38663 ft 486 kts 95°
2026-05-04 19:42 59.75344 35.03308 38666 ft 486 kts 95°
2026-05-04 19:42 59.74890 35.16708 38668 ft 486 kts 95°
2026-05-04 19:43 59.74426 35.29986 38670 ft 485 kts 96°
2026-05-04 19:43 59.73943 35.43386 38671 ft 485 kts 96°
2026-05-04 19:44 59.73437 35.56729 38673 ft 485 kts 96°
2026-05-04 19:44 59.72914 35.70074 38673 ft 485 kts 96°
2026-05-04 19:45 59.72471 35.81155 38670 ft 485 kts 96°
2026-05-04 19:45 59.71837 35.96646 38672 ft 485 kts 96°
2026-05-04 19:46 59.71372 36.07722 38674 ft 484 kts 96°
2026-05-04 19:46 59.70801 36.21028 38670 ft 484 kts 96°
2026-05-04 19:47 59.70217 36.34333 38671 ft 484 kts 96°
2026-05-04 19:47 59.69619 36.47633 38666 ft 484 kts 97°
2026-05-04 19:48 59.69012 36.60837 38671 ft 484 kts 97°
2026-05-04 19:48 59.68387 36.74114 38673 ft 484 kts 97°
2026-05-04 19:49 59.67748 36.87362 38672 ft 484 kts 97°
2026-05-04 19:49 59.67096 37.00607 38682 ft 483 kts 97°
2026-05-04 19:50 59.66431 37.13844 38684 ft 483 kts 97°
2026-05-04 19:50 59.65753 37.27059 38691 ft 483 kts 97°
2026-05-04 19:51 59.65065 37.40208 38676 ft 482 kts 97°
2026-05-04 19:51 59.64362 37.53401 38686 ft 482 kts 97°
2026-05-04 19:52 59.63646 37.66589 38688 ft 482 kts 98°
2026-05-04 19:52 59.62922 37.79654 38689 ft 481 kts 98°
2026-05-04 19:53 59.62180 37.92825 38690 ft 481 kts 98°
2026-05-04 19:53 59.61426 38.05977 38689 ft 481 kts 98°
2026-05-04 19:54 59.60666 38.19016 38695 ft 480 kts 98°
2026-05-04 19:54 59.59889 38.32127 38696 ft 480 kts 98°
2026-05-04 19:55 59.59097 38.45248 38696 ft 480 kts 98°
2026-05-04 19:55 59.58294 38.58336 38703 ft 480 kts 98°
2026-05-04 19:56 59.57477 38.71429 38701 ft 480 kts 98°
2026-05-04 19:56 59.56654 38.84417 38705 ft 480 kts 98°
2026-05-04 19:57 59.55812 38.97472 38705 ft 479 kts 98°
2026-05-04 19:57 59.54959 39.10508 38710 ft 479 kts 99°
2026-05-04 19:58 59.54093 39.23540 38714 ft 479 kts 99°
2026-05-04 19:58 59.53220 39.36459 38716 ft 478 kts 99°
2026-05-04 19:59 59.52331 39.49438 38720 ft 478 kts 99°
2026-05-04 19:59 59.51428 39.62411 38722 ft 477 kts 99°
2026-05-04 20:00 59.50513 39.75379 38726 ft 477 kts 99°
2026-05-04 20:00 59.49661 39.88260 38729 ft 477 kts 96°
2026-05-04 20:01 59.49134 40.01322 38732 ft 478 kts 95°
2026-05-04 20:01 59.48689 40.14386 38737 ft 478 kts 95°
2026-05-04 20:02 59.48210 40.27369 38734 ft 478 kts 95°
2026-05-04 20:02 59.47688 40.40405 38739 ft 478 kts 95°
2026-05-04 20:03 59.47143 40.53425 38737 ft 478 kts 95°
2026-05-04 20:03 59.46584 40.66482 38740 ft 477 kts 95°
2026-05-04 20:04 59.46018 40.79411 38741 ft 478 kts 95°
2026-05-04 20:04 59.45435 40.92431 38742 ft 477 kts 96°
2026-05-04 20:05 59.44843 41.05368 38748 ft 477 kts 96°
2026-05-04 20:05 59.44235 41.18375 38749 ft 477 kts 96°
2026-05-04 20:06 59.43615 41.31353 38748 ft 476 kts 96°
2026-05-04 20:06 59.42986 41.44253 38753 ft 476 kts 96°
2026-05-04 20:07 59.42342 41.57196 38756 ft 476 kts 96°
2026-05-04 20:07 59.41684 41.70151 38757 ft 476 kts 96°
2026-05-04 20:08 59.41013 41.83092 38761 ft 476 kts 96°
2026-05-04 20:08 59.40330 41.96034 38759 ft 476 kts 96°
2026-05-04 20:09 59.39639 42.08871 38761 ft 476 kts 96°
2026-05-04 20:09 59.38929 42.21818 38766 ft 476 kts 96°
2026-05-04 20:10 59.38206 42.34733 38765 ft 476 kts 97°
2026-05-04 20:10 59.37443 42.47572 38768 ft 477 kts 97°
2026-05-04 20:11 59.36652 42.60483 38771 ft 477 kts 97°
2026-05-04 20:11 59.35849 42.73397 38771 ft 477 kts 97°
2026-05-04 20:12 59.35037 42.86297 38773 ft 477 kts 97°
2026-05-04 20:12 59.34211 42.99207 38781 ft 477 kts 97°
2026-05-04 20:13 59.33374 43.12099 38781 ft 477 kts 97°
2026-05-04 20:13 59.32529 43.24916 38782 ft 477 kts 97°
2026-05-04 20:14 59.31666 43.37801 38788 ft 477 kts 97°
2026-05-04 20:14 59.30789 43.50695 38786 ft 477 kts 97°
2026-05-04 20:15 59.29902 43.63554 38790 ft 477 kts 97°
2026-05-04 20:15 59.29000 43.76424 38795 ft 477 kts 98°
2026-05-04 20:16 59.28093 43.89192 38796 ft 476 kts 98°
2026-05-04 20:16 59.27165 44.02055 38802 ft 476 kts 98°
2026-05-04 20:17 59.26230 44.14878 38802 ft 476 kts 98°
2026-05-04 20:17 59.25354 44.27697 38807 ft 476 kts 97°
2026-05-04 20:18 59.24512 44.40531 38811 ft 476 kts 97°
2026-05-04 20:18 59.23663 44.53249 38810 ft 475 kts 97°
2026-05-04 20:19 59.22789 44.66052 38813 ft 475 kts 97°
2026-05-04 20:19 59.21897 44.78864 38817 ft 475 kts 97°
2026-05-04 20:20 59.20993 44.91650 38818 ft 475 kts 97°
2026-05-04 20:20 59.20078 45.04407 38818 ft 474 kts 97°
2026-05-04 20:21 59.19157 45.17083 38822 ft 474 kts 97°
2026-05-04 20:21 59.17549 45.36140 38825 ft 475 kts 101°
2026-05-04 20:22 59.16136 45.48730 38829 ft 475 kts 102°
2026-05-04 20:22 59.14694 45.61234 38830 ft 475 kts 102°
2026-05-04 20:23 59.13263 45.73805 38830 ft 475 kts 102°
2026-05-04 20:23 59.11837 45.86389 38832 ft 475 kts 102°
2026-05-04 20:24 59.10405 45.98949 38834 ft 475 kts 102°
2026-05-04 20:24 59.08968 46.11439 38838 ft 475 kts 102°
2026-05-04 20:25 59.07511 46.23978 38834 ft 476 kts 102°
2026-05-04 20:25 59.06038 46.36526 38839 ft 476 kts 102°
2026-05-04 20:26 59.04554 46.49061 38840 ft 475 kts 102°
2026-05-04 20:26 59.03058 46.61581 38839 ft 475 kts 102°
2026-05-04 20:27 59.01559 46.74017 38840 ft 475 kts 102°
2026-05-04 20:27 59.00039 46.86518 38840 ft 475 kts 103°
2026-05-04 20:28 58.98509 46.98993 38842 ft 475 kts 103°
2026-05-04 20:28 58.96966 47.11459 38839 ft 475 kts 103°
2026-05-04 20:29 58.95422 47.23828 38841 ft 475 kts 103°
2026-05-04 20:29 58.93858 47.36253 38840 ft 474 kts 103°
2026-05-04 20:30 58.92806 47.44560 38841 ft 474 kts 103°
2026-05-04 20:30 58.90968 47.61100 38839 ft 474 kts 100°
2026-05-04 20:31 58.89691 47.73638 38842 ft 474 kts 100°
2026-05-04 20:31 58.88392 47.86143 38843 ft 474 kts 101°
2026-05-04 20:32 58.87069 47.98566 38844 ft 474 kts 101°
2026-05-04 20:32 58.85720 48.11040 38844 ft 473 kts 101°
2026-05-04 20:33 58.84360 48.23488 38841 ft 473 kts 101°
2026-05-04 20:33 58.82997 48.35853 38842 ft 473 kts 101°
2026-05-04 20:34 58.81616 48.48293 38842 ft 473 kts 101°
2026-05-04 20:34 58.80465 48.58632 38845 ft 473 kts 101°
2026-05-04 20:35 58.79072 48.71065 38841 ft 474 kts 101°
2026-05-04 20:35 58.77440 48.85475 38841 ft 474 kts 102°
2026-05-04 20:36 58.76247 48.95807 38843 ft 474 kts 102°
2026-05-04 20:36 58.74798 49.08209 38843 ft 474 kts 102°
2026-05-04 20:37 58.73334 49.20617 38843 ft 474 kts 102°
2026-05-04 20:37 58.71874 49.32953 38844 ft 474 kts 102°
2026-05-04 20:38 58.70405 49.45347 38844 ft 475 kts 102°
2026-05-04 20:38 58.68925 49.57729 38845 ft 475 kts 102°
2026-05-04 20:39 58.67438 49.70049 38841 ft 475 kts 102°
2026-05-04 20:39 58.65929 49.82439 38843 ft 475 kts 102°
2026-05-04 20:40 58.64411 49.94791 38843 ft 475 kts 102°
2026-05-04 20:40 58.62878 50.07165 38842 ft 475 kts 102°
2026-05-04 20:41 58.61343 50.19443 38846 ft 475 kts 102°
2026-05-04 20:41 58.59788 50.31776 38849 ft 475 kts 103°
2026-05-04 20:42 58.58221 50.44104 38849 ft 474 kts 103°
2026-05-04 20:42 58.56642 50.56294 38848 ft 474 kts 103°
2026-05-04 20:43 58.55006 50.68531 38849 ft 474 kts 103°
2026-05-04 20:43 58.53354 50.80749 38849 ft 473 kts 104°
2026-05-04 20:44 58.51696 50.92950 38850 ft 473 kts 104°
2026-05-04 20:44 58.50038 51.05061 38848 ft 473 kts 104°
2026-05-04 20:45 58.48362 51.17222 38847 ft 473 kts 104°
2026-05-04 20:45 58.46675 51.29367 38850 ft 473 kts 104°
2026-05-04 20:46 58.44986 51.41431 38850 ft 473 kts 104°
2026-05-04 20:46 58.43276 51.53548 38846 ft 473 kts 104°
2026-05-04 20:47 58.41594 51.65686 38848 ft 472 kts 102°
2026-05-04 20:47 58.40255 51.77957 38850 ft 472 kts 100°
2026-05-04 20:48 58.39038 51.90247 38848 ft 471 kts 100°
2026-05-04 20:48 58.37798 52.02462 38848 ft 471 kts 100°
2026-05-04 20:49 58.36510 52.14713 38850 ft 471 kts 101°
2026-05-04 20:49 58.35203 52.26906 38851 ft 470 kts 101°
2026-05-04 20:50 58.33879 52.39127 38850 ft 470 kts 101°
2026-05-04 20:50 58.32555 52.51247 38850 ft 469 kts 101°
2026-05-04 20:51 58.31214 52.63414 38849 ft 469 kts 101°
2026-05-04 20:51 58.29868 52.75517 38847 ft 469 kts 101°
2026-05-04 20:52 58.28504 52.87672 38850 ft 469 kts 102°
2026-05-04 20:52 58.27130 52.99800 38848 ft 469 kts 102°
2026-05-04 20:53 58.25756 53.11825 38847 ft 469 kts 102°
2026-05-04 20:53 58.24359 53.23935 38849 ft 469 kts 102°
2026-05-04 20:54 58.22948 53.36061 38846 ft 471 kts 102°
2026-05-04 20:54 58.21514 53.48272 38845 ft 478 kts 102°
2026-05-04 20:55 58.20042 53.60695 38840 ft 486 kts 102°
2026-05-04 20:55 58.18552 53.73160 38843 ft 487 kts 103°
2026-05-04 20:56 58.17044 53.85663 38840 ft 486 kts 103°
2026-05-04 20:56 58.15523 53.98163 38839 ft 486 kts 103°
2026-05-04 20:57 58.14006 54.10579 38840 ft 486 kts 103°
2026-05-04 20:57 58.12471 54.23064 38837 ft 487 kts 103°
2026-05-04 20:58 58.10923 54.35548 38835 ft 487 kts 103°
2026-05-04 20:58 58.09361 54.48028 38834 ft 486 kts 103°
2026-05-04 20:59 58.07799 54.60391 38836 ft 486 kts 103°
2026-05-04 20:59 58.06212 54.72850 38832 ft 486 kts 104°
2026-05-04 21:00 58.05030 54.85323 38829 ft 486 kts 98°
2026-05-04 21:00 58.04098 54.97986 38827 ft 486 kts 97°
2026-05-04 21:01 58.03207 55.10638 38832 ft 486 kts 97°
2026-05-04 21:01 58.02306 55.23233 38835 ft 486 kts 98°
2026-05-04 21:02 58.01382 55.35905 38824 ft 486 kts 98°